[[{"header":{"parameterUnit":"m.s-1","parameterCategory":2,"la1":30.2991,"la2":30.254,"lo1":-89.0895,"lo2":-89.0444,"dy":0.0017,"dx":0.0017,"nx":28,"ny":28,"refTime":"2025-01-30T03:00:00:Z","depth":"0","parameterNumber":2,"parameterNumberName":"U-component_of_CURRENTS"},"data":[0,0,0,0,0,0,0,0,0,0,0,0,0,0,0,0,0,0,0,0,0,0,0,0,0,0,0,0,0,0,0,0,0,0,0,0,0,0,0,0,0,0,0,0,0,0,0,0,0,0,0,0,0,0,0,0,0,0,-0.2592,-0.2593,0,-0.2645,-0.2645,-0.2645,-0.2658,-0.2658,-0.2657,-0.2657,-0.2759,-0.2761,-0.2764,0,0,0,0,0,0,0,0,0,0,0,0,0,-0.2495,-0.2496,-0.2592,-0.2593,-0.2594,-0.2645,-0.2645,-0.2646,-0.2658,-0.2658,-0.2657,-0.2657,-0.2758,-0.2761,-0.2764,0,0,0,0,0,0,0,0,0,0,0,0,0,-0.2539,-0.2497,-0.2592,-0.2608,-0.261,-0.2644,-0.2645,-0.2646,-0.2658,-0.2657,-0.2657,-0.2657,-0.2756,-0.2761,-0.2765,-0.2796,0,0,-0.2778,-0.278,0,0,0,0,0,0,0,0,-0.2537,-0.2542,-0.2604,-0.2607,-0.2609,-0.2646,-0.2648,-0.2699,-0.2658,-0.2637,-0.2657,-0.2657,-0.2727,-0.2734,-0.274,-0.28,-0.2805,-0.2778,-0.2781,-0.2783,-0.2784,0,0,0,0,0,0,0,-0.2533,-0.254,-0.261,-0.2605,-0.2608,-0.261,-0.2616,-0.2657,-0.2682,-0.2639,-0.264,-0.265,-0.2728,-0.2736,-0.2743,-0.2806,-0.2778,-0.2782,-0.2784,-0.2786,-0.2875,-0.2874,0,0,0,0,0,0,-0.2533,-0.2537,-0.2609,-0.2612,-0.2574,-0.2612,-0.2618,-0.2633,-0.268,-0.2688,-0.265,-0.265,-0.2729,-0.2738,-0.2747,-0.2755,-0.2783,-0.2787,-0.2789,-0.2875,-0.2875,-0.2874,0,0,0,0,0,0,-0.253,-0.2539,-0.2607,-0.2577,-0.2586,-0.2614,-0.263,-0.2634,-0.2641,-0.2689,-0.2697,-0.2653,-0.2729,-0.2741,-0.276,-0.2761,-0.2788,-0.2792,-0.2875,-0.2875,-0.2875,-0.2793,0,0,0,0,0,0,-0.2527,-0.2538,-0.2541,-0.2578,-0.2588,-0.2621,-0.2631,-0.2635,-0.2648,-0.2649,-0.2695,-0.2703,-0.273,-0.2753,-0.2764,-0.2767,-0.2796,-0.2875,-0.2875,-0.2875,-0.2796,-0.279,-0.2785,0,0,0,0,0,-0.2524,-0.253,-0.254,-0.2549,-0.2594,-0.2621,-0.2626,-0.2643,-0.2649,-0.2649,-0.2665,-0.2702,-0.2759,-0.2756,-0.2769,-0.2773,-0.2876,-0.2875,-0.2875,-0.2799,-0.2791,-0.2785,0,0,0,0,0,0,-0.249,-0.2534,-0.2545,-0.2565,-0.2588,-0.2624,-0.2628,-0.2642,-0.2656,-0.2657,-0.2695,-0.2704,-0.2719,-0.276,-0.2756,-0.2798,-0.2827,-0.2829,-0.2765,-0.2758,-0.2753,-0.2766,-0.2799,0,0,0,0,0,-0.2486,-0.2499,-0.254,-0.2553,-0.2566,-0.2596,-0.2608,-0.2623,-0.2645,-0.2651,-0.2678,-0.2709,-0.273,-0.2752,-0.2777,-0.2807,-0.2815,-0.2821,-0.2816,-0.281,-0.2831,-0.2819,-0.2814,-0.2873,-0.2873,-0.2873,0,0,-0.2475,-0.2501,-0.2508,-0.2546,-0.2566,-0.2587,-0.2602,-0.2621,-0.2635,-0.2663,-0.2677,-0.2687,-0.2729,-0.2744,-0.2758,-0.278,-0.279,-0.281,-0.2805,-0.2829,-0.2818,-0.2812,-0.2807,-0.2873,-0.2873,-0.2873,0,0,-0.2466,-0.2486,-0.2497,-0.2519,-0.2552,-0.2574,-0.2579,-0.2613,-0.262,-0.2637,-0.2649,-0.2653,-0.2704,-0.2719,-0.2738,-0.2726,-0.275,-0.2741,-0.2737,-0.2724,-0.2719,-0.2715,-0.2676,-0.2669,-0.275,-0.275,-0.275,0,-0.245,-0.2475,-0.2501,-0.2521,-0.2539,-0.2568,-0.2586,-0.2602,-0.2631,-0.2639,-0.2635,-0.2673,-0.2693,-0.2715,-0.27,-0.2713,-0.2703,-0.2752,-0.2715,-0.2711,-0.2708,-0.267,-0.2664,-0.2746,-0.2746,-0.2747,-0.2747,0,-0.2455,-0.2475,-0.2482,-0.2518,-0.2538,-0.2555,-0.2589,-0.2601,-0.2612,-0.2628,-0.2637,-0.2646,-0.2675,-0.2672,-0.2683,-0.268,-0.2674,-0.2693,-0.2725,-0.2697,-0.2659,-0.2653,-0.274,-0.2742,-0.2743,-0.2744,0,0,-0.2418,-0.2475,-0.2475,-0.2493,-0.2538,-0.2554,-0.258,-0.2609,-0.2623,-0.2633,-0.2641,-0.2651,-0.2652,-0.2674,-0.268,-0.267,-0.2607,-0.2673,-0.2674,-0.2624,-0.2555,-0.2467,-0.2453,-0.2613,-0.2613,-0.2612,-0.2521,0,-0.2411,-0.2442,-0.2476,-0.25,-0.2519,-0.2558,-0.2579,-0.2607,-0.2624,-0.2635,-0.2644,-0.2651,-0.2657,-0.2654,-0.2644,-0.2632,-0.2597,-0.263,-0.2603,-0.2602,-0.2518,-0.2446,-0.2361,-0.2266,-0.2516,-0.2515,-0.2514,0,-0.2397,-0.2424,-0.2448,-0.2496,-0.2508,-0.2525,-0.2562,-0.2587,-0.2618,-0.263,-0.2645,-0.2653,-0.2653,-0.2645,-0.2615,-0.2635,-0.2587,-0.2565,-0.2561,-0.2515,-0.2505,-0.2346,-0.2247,-0.2233,-0.2506,-0.2507,-0.2508,0,-0.2346,-0.2397,-0.2414,-0.2431,-0.2492,-0.2505,-0.2533,-0.2575,-0.2595,-0.2621,-0.2631,-0.2644,-0.2641,-0.2611,-0.2573,-0.259,-0.2515,-0.2534,-0.2403,-0.2396,-0.234,-0.2329,-0.2222,-0.2479,-0.2479,-0.248,-0.248,0,-0.2318,-0.2328,-0.2389,-0.2397,-0.2414,-0.2469,-0.2486,-0.2522,-0.2562,-0.2575,-0.2618,-0.2621,-0.2631,-0.2599,-0.2559,-0.2459,-0.2502,-0.2385,-0.2364,-0.2304,-0.2291,-0.2294,-0.233,-0.2476,-0.2477,-0.2478,-0.2478,0,-0.225,-0.2295,-0.2315,-0.2375,-0.2389,-0.2396,-0.2453,-0.2464,-0.2521,-0.2537,-0.2545,-0.2594,-0.2553,-0.2532,-0.2472,-0.2426,-0.23,-0.2291,-0.2205,-0.2174,-0.204,-0.2076,-0.1981,-0.1923,-0.2134,-0.2131,-0.2129,0,-0.2216,-0.2219,-0.2276,-0.2281,-0.2303,-0.2329,-0.2343,-0.2421,-0.2442,-0.2511,-0.2508,-0.2497,-0.246,-0.235,-0.226,-0.2146,-0.2168,-0.2008,-0.2024,-0.1998,-0.2024,-0.2059,-0.2022,-0.1904,-0.19,-0.1897,-0.1895,0,-0.214,-0.216,-0.2177,-0.2192,-0.2206,-0.2228,-0.2261,-0.2276,-0.2362,-0.2386,-0.2394,-0.237,-0.2278,-0.2139,-0.2007,-0.1936,-0.1968,-0.1935,-0.194,-0.1852,-0.1856,-0.1801,-0.1994,-0.1866,-0.1869,-0.1871,-0.1872,-0.1873,-0.2064,-0.2057,-0.2076,-0.2075,-0.2095,-0.2097,-0.2074,-0.213,-0.2145,-0.2159,-0.2219,-0.216,-0.2069,-0.1869,-0.1787,-0.1644,-0.1717,-0.1612,-0.1658,-0.1697,-0.1636,-0.1744,-0.1579,-0.158,-0.1582,-0.1582,-0.1583,0,-0.196,-0.1956,-0.1954,-0.1951,-0.1919,-0.1972,-0.1988,-0.1949,-0.1922,-0.1985,-0.1965,-0.1886,-0.1727,-0.1655,-0.1504,-0.1415,-0.1392,-0.1393,-0.1445,-0.1419,-0.1526,-0.1511,-0.1285,-0.1285,-0.1285,-0.1285,-0.1285,-0.1285,-0.1904,-0.186,-0.1857,-0.1762,-0.1753,-0.1678,-0.1656,-0.1634,-0.1652,-0.1617,-0.1623,-0.1621,-0.1564,-0.1591,-0.1434,-0.1346,-0.1329,-0.1277,-0.1307,-0.1422,-0.1448,-0.1472,-0.1464,-0.1232,-0.1232,-0.1148,-0.1147,-0.1147]},{"header":{"parameterUnit":"m.s-1","parameterCategory":2,"la1":30.2991,"la2":30.254,"lo1":-89.0895,"lo2":-89.0444,"dy":0.0017,"dx":0.0017,"nx":28,"ny":28,"refTime":"2025-01-30T03:00:00:Z","depth":"0","parameterNumber":3,"parameterNumberName":"V-component_of_CURRENTS"},"data":[0,0,0,0,0,0,0,0,0,0,0,0,0,0,0,0,0,0,0,0,0,0,0,0,0,0,0,0,0,0,0,0,0,0,0,0,0,0,0,0,0,0,0,0,0,0,0,0,0,0,0,0,0,0,0,0,0,0,-0.0431,-0.043,0,-0.0359,-0.0357,-0.0356,-0.0289,-0.0289,-0.0288,-0.0288,-0.0005,0.0002,0.0009,0,0,0,0,0,0,0,0,0,0,0,0,0,-0.0447,-0.0447,-0.0431,-0.043,-0.0429,-0.0359,-0.0357,-0.0356,-0.0289,-0.0289,-0.0288,-0.0287,-0.0007,0.0001,0.001,0,0,0,0,0,0,0,0,0,0,0,0,0,-0.0411,-0.0447,-0.0431,-0.039,-0.0386,-0.0359,-0.0357,-0.0356,-0.0289,-0.0289,-0.0288,-0.0287,-0.001,0.0,0.0011,0.006,0,0,0.0043,0.0048,0,0,0,0,0,0,0,0,-0.0413,-0.041,-0.0397,-0.0393,-0.0388,-0.0335,-0.026,-0.0207,-0.029,-0.0322,-0.0287,-0.0287,-0.0098,-0.008,-0.0067,0.0073,0.0085,0.0044,0.005,0.0055,0.0058,0,0,0,0,0,0,0,-0.0416,-0.0412,-0.0399,-0.0396,-0.0391,-0.0354,-0.0348,-0.025,-0.0209,-0.032,-0.0315,-0.0313,-0.0094,-0.0078,-0.0059,0.0089,0.0044,0.0053,0.006,0.0064,0.0285,0.0285,0,0,0,0,0,0,-0.0436,-0.0415,-0.0401,-0.0397,-0.0402,-0.0355,-0.0348,-0.035,-0.0215,-0.0196,-0.0314,-0.031,-0.0096,-0.0072,-0.0049,0.0015,0.0055,0.0065,0.0071,0.0286,0.0285,0.0285,0,0,0,0,0,0,-0.0436,-0.0435,-0.0404,-0.0406,-0.04,-0.0356,-0.0358,-0.0349,-0.0332,-0.0213,-0.0189,-0.0306,-0.0094,-0.0064,0.0015,0.0027,0.007,0.0079,0.0286,0.0285,0.0285,0.0146,0,0,0,0,0,0,-0.0437,-0.0436,-0.0441,-0.0408,-0.0401,-0.0396,-0.0359,-0.0348,-0.0333,-0.0328,-0.0199,-0.0172,-0.0091,-0.0002,0.0025,0.0042,0.0087,0.0287,0.0286,0.0285,0.0151,0.014,0.0131,0,0,0,0,0,-0.0438,-0.0453,-0.0442,-0.044,-0.0411,-0.0397,-0.039,-0.0353,-0.0334,-0.0333,-0.026,-0.0176,0.0013,0.0005,0.0038,0.0058,0.0287,0.0286,0.0285,0.0155,0.0142,0.0131,0,0,0,0,0,0,-0.0459,-0.0447,-0.0434,-0.0443,-0.0426,-0.0387,-0.0383,-0.0361,-0.0305,-0.0293,-0.0184,-0.0153,-0.0083,0.0004,-0.0007,0.0118,0.0166,0.0171,0.0056,0.0046,0.0036,0.0025,0.0096,0,0,0,0,0,-0.047,-0.0478,-0.0457,-0.0463,-0.0458,-0.0422,-0.0411,-0.039,-0.0341,-0.0318,-0.0235,-0.0141,-0.0062,0.0,0.0079,0.0157,0.0229,0.0192,0.0182,0.0173,0.0184,0.0279,0.0279,0.0281,0.0281,0.0281,0,0,-0.048,-0.0475,-0.0477,-0.0469,-0.0449,-0.0449,-0.0412,-0.0404,-0.0393,-0.0289,-0.0244,-0.0175,-0.0056,0.0011,0.0054,0.009,0.0203,0.0172,0.0163,0.018,0.0278,0.0278,0.0278,0.0281,0.0281,0.0281,0,0,-0.0508,-0.05,-0.0517,-0.0508,-0.0494,-0.0471,-0.0474,-0.0442,-0.0415,-0.0373,-0.0304,-0.0237,-0.0108,-0.003,0.003,0.0023,0.0133,0.0052,0.002,0.011,0.0111,0.0113,0.0168,0.0176,0.0066,0.0065,0.0065,0,-0.052,-0.0539,-0.0518,-0.0531,-0.0527,-0.0487,-0.05,-0.0469,-0.0416,-0.0387,-0.0371,-0.0215,-0.0124,-0.0029,-0.0043,0.0005,0.0059,0.0049,0.0096,0.01,0.0104,0.0162,0.0172,0.0058,0.0059,0.006,0.0061,0,-0.056,-0.0573,-0.0582,-0.0584,-0.0576,-0.0582,-0.0545,-0.0526,-0.0492,-0.0451,-0.0375,-0.0278,-0.0174,-0.0145,-0.0092,-0.0016,0.0009,0.0054,0.012,0.0095,0.0157,0.0171,0.0049,0.0051,0.0053,0.0055,0,0,-0.0592,-0.0609,-0.0611,-0.0623,-0.0606,-0.0605,-0.0586,-0.055,-0.0526,-0.0469,-0.0423,-0.0317,-0.0265,-0.0195,-0.0121,-0.0045,0.0008,0.0008,0.0016,0.0052,0.0182,0.0207,0.0224,0.0057,0.0059,0.0061,0.02,0,-0.0628,-0.0674,-0.0663,-0.0689,-0.0708,-0.0666,-0.0651,-0.0608,-0.0554,-0.0499,-0.0396,-0.0328,-0.028,-0.0239,-0.0158,-0.0025,0.0043,-0.0035,0.0213,0.022,0.0237,0.0242,0.0274,0.0403,0.0214,0.0216,0.0218,0,-0.0671,-0.0696,-0.0739,-0.0747,-0.0748,-0.0751,-0.0712,-0.0691,-0.0598,-0.0553,-0.0465,-0.0385,-0.0267,-0.0233,-0.0017,-0.0071,0.0042,0.0134,0.0143,0.0234,0.0272,0.0408,0.0436,0.0571,0.024,0.0238,0.0237,0,-0.0714,-0.0745,-0.0782,-0.0788,-0.0788,-0.0788,-0.0776,-0.0707,-0.068,-0.0582,-0.0544,-0.0399,-0.0313,-0.0159,0.0028,0.0012,0.026,0.0275,0.0399,0.04,0.0516,0.0524,0.0703,0.0423,0.0423,0.0423,0.0422,0,-0.0762,-0.079,-0.0809,-0.0832,-0.0862,-0.0838,-0.0836,-0.0799,-0.0729,-0.0685,-0.0574,-0.0499,-0.0289,-0.0125,0.0028,0.026,0.0273,0.0401,0.045,0.0463,0.0464,0.0659,0.0704,0.0428,0.0427,0.0426,0.0425,0,-0.0808,-0.0821,-0.0867,-0.0884,-0.0889,-0.0909,-0.0897,-0.0884,-0.0815,-0.0752,-0.0726,-0.0548,-0.0331,-0.0125,0.0149,0.0273,0.0574,0.0554,0.0532,0.0576,0.0792,0.0827,0.1073,0.1163,0.0708,0.071,0.0711,0,-0.0836,-0.0868,-0.0913,-0.0943,-0.0955,-0.0976,-0.0985,-0.0936,-0.0914,-0.0773,-0.0742,-0.053,-0.0356,0.0035,0.0293,0.0569,0.0676,0.0743,0.0725,0.0821,0.0898,0.092,0.0978,0.0811,0.0813,0.0815,0.0816,0,-0.0885,-0.0901,-0.0939,-0.1006,-0.1036,-0.1062,-0.1066,-0.1065,-0.0983,-0.0902,-0.0746,-0.0594,-0.0215,0.0127,0.0469,0.0634,0.0842,0.0784,0.0923,0.1026,0.103,0.1134,0.0671,0.0831,0.083,0.0829,0.0828,0.0827,-0.0909,-0.0952,-0.1003,-0.1061,-0.1101,-0.1133,-0.1143,-0.1115,-0.1061,-0.0905,-0.0753,-0.0462,-0.0016,0.0483,0.0663,0.1027,0.0992,0.1136,0.1177,0.1195,0.1268,0.0809,0.0998,0.0998,0.0997,0.0997,0.0997,0,-0.0932,-0.0985,-0.1052,-0.1119,-0.1166,-0.117,-0.118,-0.1146,-0.107,-0.086,-0.0664,-0.0113,0.032,0.0724,0.1209,0.1406,0.1455,0.1507,0.1563,0.1611,0.1257,0.1247,0.1453,0.1453,0.1453,0.1452,0.1452,0.1452,-0.0946,-0.1018,-0.1059,-0.115,-0.1193,-0.1214,-0.1213,-0.1123,-0.0969,-0.0605,-0.0255,0.004,0.0589,0.1281,0.1718,0.1766,0.1937,0.1925,0.2015,0.1773,0.1741,0.1711,0.1715,0.2016,0.2016,0.2367,0.2371,0.2373]}],[{"header":{"parameterUnit":"m.s-1","parameterCategory":2,"la1":30.2991,"la2":30.254,"lo1":-89.0895,"lo2":-89.0444,"dy":0.0017,"dx":0.0017,"nx":28,"ny":28,"refTime":"2025-01-30T03:00:00:Z","depth":"2","parameterNumber":2,"parameterNumberName":"U-component_of_CURRENTS"},"data":[0,0,0,0,0,0,0,0,0,0,0,0,0,0,0,0,0,0,0,0,0,0,0,0,0,0,0,0,0,0,0,0,0,0,0,0,0,0,0,0,0,0,0,0,0,0,0,0,0,0,0,0,0,0,0,0,0,0,-0.2211,-0.2212,0,-0.2257,-0.2257,-0.2257,-0.2271,-0.2271,-0.2271,-0.227,-0.2292,-0.2293,-0.2294,0,0,0,0,0,0,0,0,0,0,0,0,0,-0.2133,-0.2135,-0.2211,-0.2212,-0.2213,-0.2257,-0.2257,-0.2258,-0.2271,-0.2271,-0.2271,-0.227,-0.2292,-0.2293,-0.2294,0,0,0,0,0,0,0,0,0,0,0,0,0,-0.217,-0.2135,-0.2211,-0.2226,-0.2228,-0.2257,-0.2257,-0.2258,-0.2271,-0.2271,-0.2271,-0.227,-0.2292,-0.2293,-0.2294,-0.2303,0,0,-0.2297,-0.2297,0,0,0,0,0,0,0,0,-0.2168,-0.2173,-0.2223,-0.2225,-0.2227,-0.2259,-0.2238,-0.2272,-0.2271,-0.2253,-0.227,-0.227,-0.228,-0.2282,-0.2289,-0.2304,-0.2305,-0.2297,-0.2298,-0.2298,-0.2298,0,0,0,0,0,0,0,-0.2166,-0.2171,-0.2228,-0.2224,-0.2226,-0.2229,-0.2234,-0.2244,-0.2265,-0.2254,-0.2256,-0.2263,-0.2281,-0.2288,-0.229,-0.2305,-0.2297,-0.2298,-0.2299,-0.2299,-0.2329,-0.2329,0,0,0,0,0,0,-0.2164,-0.2169,-0.2226,-0.2229,-0.2198,-0.2231,-0.2236,-0.2248,-0.2266,-0.2269,-0.2263,-0.2264,-0.2287,-0.2289,-0.2291,-0.23,-0.2298,-0.2299,-0.23,-0.2328,-0.2329,-0.2329,0,0,0,0,0,0,-0.2162,-0.2169,-0.2224,-0.2201,-0.2208,-0.2233,-0.2245,-0.2249,-0.2259,-0.2273,-0.2275,-0.2271,-0.2287,-0.2289,-0.2301,-0.2301,-0.2299,-0.23,-0.2328,-0.2328,-0.2329,-0.2321,0,0,0,0,0,0,-0.216,-0.2168,-0.2172,-0.2201,-0.221,-0.224,-0.2246,-0.225,-0.2265,-0.2266,-0.228,-0.2282,-0.2287,-0.2299,-0.2302,-0.2303,-0.2301,-0.2328,-0.2328,-0.2329,-0.2321,-0.2321,-0.2321,0,0,0,0,0,-0.2157,-0.2163,-0.2172,-0.2179,-0.2216,-0.224,-0.2245,-0.226,-0.2265,-0.2269,-0.2279,-0.2281,-0.2303,-0.23,-0.2303,-0.2304,-0.2328,-0.2328,-0.2329,-0.2321,-0.2321,-0.2321,0,0,0,0,0,0,-0.2133,-0.2167,-0.2177,-0.2194,-0.2215,-0.2243,-0.2249,-0.2262,-0.2274,-0.2276,-0.2286,-0.2288,-0.2296,-0.2304,-0.2301,-0.2314,-0.2315,-0.2316,-0.2308,-0.2308,-0.2308,-0.2313,-0.2302,0,0,0,0,0,-0.2131,-0.2142,-0.2175,-0.2187,-0.2199,-0.2225,-0.2236,-0.225,-0.2267,-0.2273,-0.2283,-0.2293,-0.23,-0.2307,-0.2313,-0.2325,-0.2316,-0.2327,-0.2327,-0.2327,-0.2333,-0.232,-0.2319,-0.233,-0.233,-0.233,0,0,-0.2124,-0.2144,-0.2151,-0.2183,-0.22,-0.2221,-0.2231,-0.225,-0.2266,-0.2273,-0.2289,-0.2292,-0.2303,-0.2311,-0.2316,-0.2319,-0.2315,-0.2328,-0.2327,-0.2334,-0.2321,-0.232,-0.2319,-0.233,-0.233,-0.233,0,0,-0.2119,-0.2137,-0.2147,-0.2167,-0.2197,-0.2216,-0.2223,-0.2253,-0.2262,-0.2281,-0.2285,-0.2289,-0.2307,-0.2311,-0.2317,-0.2323,-0.2312,-0.2325,-0.2333,-0.232,-0.2319,-0.2318,-0.2285,-0.2281,-0.2328,-0.2328,-0.2328,0,-0.211,-0.2131,-0.2152,-0.2171,-0.2189,-0.2215,-0.2233,-0.225,-0.2278,-0.2286,-0.2284,-0.2303,-0.2307,-0.2319,-0.232,-0.2322,-0.2308,-0.2331,-0.2319,-0.2318,-0.2317,-0.2284,-0.228,-0.2328,-0.2328,-0.2328,-0.2328,0,-0.2117,-0.2136,-0.2144,-0.2178,-0.2198,-0.2216,-0.2248,-0.2264,-0.2277,-0.2292,-0.2302,-0.2305,-0.2318,-0.2316,-0.2322,-0.2321,-0.2309,-0.2315,-0.2317,-0.2315,-0.2281,-0.2276,-0.2328,-0.2328,-0.2328,-0.2328,0,0,-0.2087,-0.2139,-0.214,-0.2158,-0.2203,-0.2219,-0.2248,-0.2278,-0.2293,-0.2307,-0.2317,-0.2326,-0.2326,-0.2333,-0.2334,-0.2326,-0.2297,-0.2321,-0.2321,-0.2285,-0.2253,-0.2173,-0.2161,-0.23,-0.23,-0.23,-0.2224,0,-0.2084,-0.2115,-0.2146,-0.2175,-0.2193,-0.2231,-0.2255,-0.2285,-0.2304,-0.2318,-0.2323,-0.2331,-0.2334,-0.2334,-0.2328,-0.2313,-0.2289,-0.2316,-0.2264,-0.2262,-0.2189,-0.2155,-0.201,-0.1925,-0.222,-0.2219,-0.2219,0,-0.2074,-0.2099,-0.2126,-0.2174,-0.2186,-0.2207,-0.2246,-0.2274,-0.2306,-0.232,-0.2333,-0.2339,-0.2341,-0.2334,-0.2304,-0.2323,-0.2287,-0.2265,-0.2262,-0.2191,-0.2175,-0.1979,-0.1906,-0.2212,-0.2212,-0.2213,-0.2213,0,-0.2028,-0.208,-0.2099,-0.2117,-0.2178,-0.2193,-0.2223,-0.2266,-0.2286,-0.2317,-0.2327,-0.2336,-0.2331,-0.2307,-0.2275,-0.2289,-0.2223,-0.2236,-0.2123,-0.2117,-0.1985,-0.1967,-0.2193,-0.2193,-0.2193,-0.2193,-0.2193,0,-0.2006,-0.2018,-0.2078,-0.2089,-0.211,-0.2164,-0.2186,-0.2222,-0.2263,-0.2275,-0.232,-0.2318,-0.2325,-0.2297,-0.2266,-0.2174,-0.2213,-0.2111,-0.209,-0.1976,-0.1959,-0.2212,-0.2215,-0.219,-0.2191,-0.2192,-0.2192,0,-0.1945,-0.1988,-0.2011,-0.2071,-0.2088,-0.21,-0.2159,-0.2171,-0.2228,-0.2244,-0.2253,-0.2294,-0.2255,-0.2238,-0.2186,-0.2144,-0.2077,-0.203,-0.1887,-0.185,-0.198,-0.1984,-0.1897,-0.1894,-0.1891,-0.1888,-0.1886,0,-0.1914,-0.1919,-0.1978,-0.1985,-0.2009,-0.2041,-0.2057,-0.2133,-0.2152,-0.2217,-0.2211,-0.2203,-0.2161,-0.2064,-0.1982,-0.1884,-0.1971,-0.1709,-0.171,-0.196,-0.1949,-0.1958,-0.1965,-0.1525,-0.152,-0.1516,-0.1513,0,-0.1846,-0.1867,-0.1885,-0.1904,-0.1921,-0.1945,-0.198,-0.1992,-0.2073,-0.2091,-0.2091,-0.2064,-0.1978,-0.1814,-0.1707,-0.1641,-0.172,-0.1624,-0.1909,-0.1629,-0.1605,-0.1596,-0.1616,-0.1477,-0.1481,-0.1483,-0.1485,-0.1487,-0.178,-0.1774,-0.1795,-0.1799,-0.1821,-0.1822,-0.1798,-0.1842,-0.185,-0.1839,-0.1904,-0.1807,-0.177,-0.1516,-0.1417,-0.134,-0.1459,-0.1407,-0.1421,-0.1438,-0.1416,-0.1389,-0.1215,-0.1217,-0.1219,-0.122,-0.1221,0,-0.1683,-0.1682,-0.1684,-0.1685,-0.1657,-0.1709,-0.1716,-0.1665,-0.162,-0.1632,-0.1597,-0.1401,-0.1282,-0.1248,-0.1066,-0.1023,-0.1029,-0.0989,-0.1009,-0.1044,-0.1075,-0.1037,-0.0734,-0.0732,-0.0731,-0.073,0,0,-0.1632,-0.1591,-0.1589,-0.1509,-0.1506,-0.1423,-0.1396,-0.1338,-0.1311,-0.1217,-0.1161,-0.1224,-0.1222,-0.0991,-0.0923,-0.0802,-0.0919,-0.0758,-0.1148,-0.1207,-0.1237,-0.131,-0.129,0,0,0,0,0]},{"header":{"parameterUnit":"m.s-1","parameterCategory":2,"la1":30.2991,"la2":30.254,"lo1":-89.0895,"lo2":-89.0444,"dy":0.0017,"dx":0.0017,"nx":28,"ny":28,"refTime":"2025-01-30T03:00:00:Z","depth":"2","parameterNumber":3,"parameterNumberName":"V-component_of_CURRENTS"},"data":[0,0,0,0,0,0,0,0,0,0,0,0,0,0,0,0,0,0,0,0,0,0,0,0,0,0,0,0,0,0,0,0,0,0,0,0,0,0,0,0,0,0,0,0,0,0,0,0,0,0,0,0,0,0,0,0,0,0,-0.0418,-0.0418,0,-0.0358,-0.0357,-0.0356,-0.0302,-0.0302,-0.0301,-0.0301,-0.0106,-0.0101,-0.0096,0,0,0,0,0,0,0,0,0,0,0,0,0,-0.0428,-0.0428,-0.0418,-0.0418,-0.0417,-0.0358,-0.0357,-0.0356,-0.0302,-0.0302,-0.0301,-0.0301,-0.0107,-0.0102,-0.0096,0,0,0,0,0,0,0,0,0,0,0,0,0,-0.0399,-0.0428,-0.0418,-0.0385,-0.0382,-0.0358,-0.0357,-0.0356,-0.0302,-0.0302,-0.0301,-0.0301,-0.0109,-0.0102,-0.0095,-0.0062,0,0,-0.0073,-0.007,0,0,0,0,0,0,0,0,-0.0401,-0.0398,-0.0391,-0.0387,-0.0384,-0.0339,-0.0289,-0.0252,-0.0302,-0.033,-0.0301,-0.03,-0.0174,-0.0161,-0.0149,-0.0053,-0.0044,-0.0072,-0.0068,-0.0065,-0.0063,0,0,0,0,0,0,0,-0.0403,-0.04,-0.0391,-0.039,-0.0386,-0.0354,-0.0349,-0.0282,-0.0251,-0.0327,-0.0324,-0.0322,-0.017,-0.0156,-0.0144,-0.0042,-0.0072,-0.0066,-0.0062,-0.0059,0.0104,0.0104,0,0,0,0,0,0,-0.042,-0.0403,-0.0393,-0.039,-0.0394,-0.0354,-0.0349,-0.0352,-0.0254,-0.0241,-0.0322,-0.0319,-0.0169,-0.0152,-0.0136,-0.0088,-0.0065,-0.0058,-0.0054,0.0104,0.0104,0.0104,0,0,0,0,0,0,-0.042,-0.042,-0.0396,-0.0396,-0.0392,-0.0356,-0.0359,-0.0351,-0.0338,-0.0253,-0.0236,-0.0317,-0.0168,-0.0147,-0.0085,-0.008,-0.0055,-0.0048,0.0104,0.0104,0.0104,0.0008,0,0,0,0,0,0,-0.0421,-0.042,-0.0426,-0.0398,-0.0392,-0.039,-0.0359,-0.035,-0.0339,-0.0334,-0.0242,-0.0224,-0.0166,-0.0097,-0.0078,-0.0069,-0.0042,0.0104,0.0104,0.0104,0.0011,0.0005,-0.0001,0,0,0,0,0,-0.0421,-0.0435,-0.0427,-0.0425,-0.0402,-0.0391,-0.0385,-0.0354,-0.0339,-0.0339,-0.0279,-0.0227,-0.0083,-0.0091,-0.0069,-0.0058,0.0104,0.0104,0.0104,0.0014,0.0006,-0.0001,0,0,0,0,0,0,-0.0441,-0.0431,-0.042,-0.043,-0.0415,-0.0383,-0.038,-0.0361,-0.0316,-0.0307,-0.0226,-0.0204,-0.0151,-0.0092,-0.0102,-0.0012,0.0019,0.0024,-0.0056,-0.0063,-0.0069,-0.0084,-0.0036,0,0,0,0,0,-0.045,-0.0458,-0.044,-0.0447,-0.0443,-0.0413,-0.0404,-0.0386,-0.0346,-0.0327,-0.0266,-0.0196,-0.0134,-0.0091,-0.0032,0.0023,0.0077,0.0045,0.0039,0.0033,0.0036,0.0112,0.0113,0.0104,0.0104,0.0104,0,0,-0.0459,-0.0455,-0.0459,-0.0452,-0.0436,-0.0436,-0.0405,-0.0399,-0.039,-0.0309,-0.0274,-0.0218,-0.0128,-0.0077,-0.0045,-0.0023,0.006,0.0033,0.0027,0.0034,0.0112,0.0113,0.0114,0.0103,0.0103,0.0104,0,0,-0.0485,-0.0479,-0.0494,-0.0487,-0.0476,-0.0456,-0.0459,-0.0431,-0.041,-0.0375,-0.0316,-0.0259,-0.0167,-0.0104,-0.0058,-0.0057,0.0017,-0.0038,-0.0066,0.0006,0.0008,0.001,0.0059,0.0066,-0.0031,-0.0031,-0.0031,0,-0.0495,-0.0513,-0.0496,-0.0508,-0.0505,-0.047,-0.0482,-0.0456,-0.0411,-0.0388,-0.0374,-0.0246,-0.0177,-0.01,-0.0106,-0.0069,-0.0026,-0.005,-0.0003,0.0001,0.0004,0.0055,0.0064,-0.0036,-0.0035,-0.0035,-0.0034,0,-0.0532,-0.0544,-0.0552,-0.0555,-0.0549,-0.0555,-0.0524,-0.0507,-0.0478,-0.0443,-0.0379,-0.0295,-0.0215,-0.0188,-0.0144,-0.0083,-0.0063,-0.0031,0.001,-0.0001,0.0054,0.0065,-0.0042,-0.0041,-0.0039,-0.0038,0,0,-0.056,-0.0576,-0.0578,-0.059,-0.0576,-0.0577,-0.0561,-0.0532,-0.0515,-0.0462,-0.0426,-0.0331,-0.0289,-0.0235,-0.017,-0.0107,-0.0055,-0.0067,-0.0061,-0.0028,0.0088,0.0098,0.0112,-0.0018,-0.0016,-0.0015,0.0108,0,-0.0593,-0.0634,-0.0625,-0.0651,-0.0668,-0.0632,-0.0621,-0.0586,-0.0542,-0.0497,-0.0405,-0.0346,-0.0304,-0.0267,-0.02,-0.0087,-0.0027,-0.0092,0.0104,0.0109,0.0112,0.0125,0.0092,0.0198,0.0119,0.0121,0.0122,0,-0.063,-0.0654,-0.0694,-0.0704,-0.0706,-0.0711,-0.0683,-0.0666,-0.0589,-0.0552,-0.0478,-0.0406,-0.0305,-0.0271,-0.009,-0.0136,-0.0037,0.0047,0.0054,0.0109,0.0142,0.0203,0.0222,0.0142,0.0141,0.0139,0.0138,0,-0.067,-0.0699,-0.0734,-0.074,-0.0744,-0.0746,-0.0738,-0.0683,-0.0663,-0.0582,-0.0553,-0.0428,-0.0355,-0.0222,-0.0059,-0.007,0.0138,0.0155,0.0258,0.0259,0.0294,0.0296,0.0284,0.0284,0.0283,0.0283,0.0283,0,-0.0713,-0.074,-0.0759,-0.0781,-0.0812,-0.0793,-0.08,-0.0769,-0.0715,-0.0684,-0.0586,-0.0525,-0.0338,-0.0199,-0.0065,0.0129,0.0142,0.0258,0.0299,0.0257,0.0254,0.0261,0.0257,0.0288,0.0287,0.0286,0.0285,0,-0.0753,-0.0766,-0.081,-0.083,-0.0837,-0.0859,-0.0857,-0.0852,-0.0797,-0.0752,-0.0728,-0.0578,-0.0396,-0.0214,0.0025,0.0131,0.031,0.0375,0.0299,0.0328,0.0379,0.0369,0.0501,0.0503,0.0504,0.0505,0.0506,0,-0.0779,-0.0808,-0.0854,-0.0885,-0.0899,-0.0924,-0.0937,-0.09,-0.0887,-0.0778,-0.0755,-0.0577,-0.0437,-0.0105,0.0117,0.0356,0.0364,0.0458,0.044,0.0379,0.0406,0.0393,0.0381,0.0445,0.0445,0.0445,0.0446,0,-0.0824,-0.0841,-0.0878,-0.0944,-0.0977,-0.1007,-0.1018,-0.1022,-0.0959,-0.0898,-0.0776,-0.0653,-0.0342,-0.0079,0.0215,0.0351,0.0412,0.0471,0.0462,0.0383,0.0333,0.0356,0.0345,0.0448,0.0448,0.0448,0.0448,0.0447,-0.0849,-0.089,-0.094,-0.0998,-0.104,-0.1075,-0.109,-0.1072,-0.1034,-0.0917,-0.0797,-0.0584,-0.0342,0.0082,0.0285,0.0472,0.0472,0.0523,0.052,0.0517,0.0477,0.0431,0.0556,0.0556,0.0556,0.0557,0.0557,0,-0.0877,-0.0925,-0.0989,-0.1057,-0.1106,-0.1112,-0.1128,-0.1106,-0.1048,-0.0903,-0.0753,-0.0471,-0.0181,0.0069,0.0361,0.0532,0.0519,0.056,0.0506,0.0502,0.0499,0.0456,0.0532,0.0532,0.0532,0.0533,0,0,-0.0894,-0.0962,-0.0999,-0.109,-0.1135,-0.1168,-0.1171,-0.1108,-0.1001,-0.0845,-0.0676,-0.0456,-0.0161,0.004,0.0251,0.0402,0.041,0.0417,0.0419,0.0326,0.0321,0.046,0.0388,0,0,0,0,0]}],[{"header":{"parameterUnit":"m.s-1","parameterCategory":2,"la1":30.2991,"la2":30.254,"lo1":-89.0895,"lo2":-89.0444,"dy":0.0017,"dx":0.0017,"nx":28,"ny":28,"refTime":"2025-01-30T03:00:00:Z","depth":"4","parameterNumber":2,"parameterNumberName":"U-component_of_CURRENTS"},"data":[0,0,0,0,0,0,0,0,0,0,0,0,0,0,0,0,0,0,0,0,0,0,0,0,0,0,0,0,0,0,0,0,0,0,0,0,0,0,0,0,0,0,0,0,0,0,0,0,0,0,0,0,0,0,0,0,0,0,-0.1534,-0.1535,0,-0.1598,-0.1599,-0.16,-0.1652,-0.1653,-0.1653,-0.1654,-0.1705,-0.1705,-0.1706,0,0,0,0,0,0,0,0,0,0,0,0,0,-0.145,-0.1451,-0.1534,-0.1535,-0.1536,-0.1598,-0.1599,-0.16,-0.1652,-0.1653,-0.1653,-0.1654,-0.1704,-0.1705,-0.1706,0,0,0,0,0,0,0,0,0,0,0,0,0,-0.1496,-0.1451,-0.1534,-0.157,-0.1574,-0.1598,-0.1599,-0.16,-0.1652,-0.1653,-0.1654,-0.1655,-0.1704,-0.1705,-0.1706,-0.1694,0,0,-0.171,-0.171,0,0,0,0,0,0,0,0,-0.1494,-0.1499,-0.1564,-0.1568,-0.1572,-0.1619,-0.1588,-0.1631,-0.1651,-0.1621,-0.1654,-0.1655,-0.1675,-0.1678,-0.1687,-0.1696,-0.1698,-0.171,-0.1711,-0.1711,-0.1711,0,0,0,0,0,0,0,-0.149,-0.1497,-0.1558,-0.1565,-0.157,-0.1581,-0.1589,-0.1597,-0.164,-0.1624,-0.1628,-0.1637,-0.1677,-0.1686,-0.1689,-0.1699,-0.171,-0.1711,-0.1712,-0.1712,-0.1766,-0.1767,0,0,0,0,0,0,-0.1484,-0.1494,-0.1556,-0.156,-0.1536,-0.1582,-0.1591,-0.1602,-0.1641,-0.1648,-0.1636,-0.1639,-0.1683,-0.1687,-0.169,-0.1742,-0.1711,-0.1712,-0.1713,-0.1765,-0.1766,-0.1767,0,0,0,0,0,0,-0.1482,-0.1489,-0.1554,-0.1529,-0.1538,-0.1583,-0.1595,-0.1603,-0.1641,-0.165,-0.1658,-0.1669,-0.1684,-0.1689,-0.1727,-0.1742,-0.1713,-0.1714,-0.1764,-0.1766,-0.1767,-0.1804,0,0,0,0,0,0,-0.1479,-0.1488,-0.1507,-0.1529,-0.154,-0.1583,-0.1595,-0.1604,-0.1643,-0.1649,-0.168,-0.1685,-0.1685,-0.1725,-0.1728,-0.1743,-0.1715,-0.1763,-0.1765,-0.1766,-0.1802,-0.1806,-0.181,0,0,0,0,0,-0.1476,-0.1492,-0.1507,-0.1516,-0.156,-0.1584,-0.1591,-0.1624,-0.1644,-0.1662,-0.169,-0.1685,-0.1736,-0.1727,-0.173,-0.1746,-0.1763,-0.1765,-0.1766,-0.18,-0.1805,-0.181,0,0,0,0,0,0,-0.1469,-0.15,-0.1517,-0.1544,-0.157,-0.1594,-0.1617,-0.1638,-0.1675,-0.169,-0.17,-0.1706,-0.1741,-0.1739,-0.173,-0.1765,-0.1746,-0.1748,-0.177,-0.1776,-0.178,-0.1776,-0.1715,0,0,0,0,0,-0.1474,-0.1496,-0.1524,-0.1548,-0.1563,-0.1596,-0.1616,-0.1639,-0.1667,-0.1686,-0.1709,-0.173,-0.1744,-0.176,-0.177,-0.1794,-0.1775,-0.1804,-0.1808,-0.1811,-0.1811,-0.18,-0.1803,-0.1773,-0.1773,-0.1773,0,0,-0.1479,-0.1499,-0.1514,-0.1549,-0.1573,-0.16,-0.1611,-0.1648,-0.1676,-0.1684,-0.1736,-0.1747,-0.1754,-0.1781,-0.1795,-0.1787,-0.1809,-0.1814,-0.1817,-0.1814,-0.1802,-0.1805,-0.1807,-0.1774,-0.1774,-0.1773,0,0,-0.1488,-0.1518,-0.1536,-0.1561,-0.1601,-0.1619,-0.1636,-0.1675,-0.1703,-0.1746,-0.1756,-0.178,-0.1811,-0.1815,-0.182,-0.1852,-0.183,-0.1859,-0.1881,-0.1871,-0.1873,-0.1875,-0.1849,-0.1848,-0.1863,-0.1863,-0.1863,0,-0.1496,-0.1522,-0.1546,-0.157,-0.1595,-0.1631,-0.1658,-0.1687,-0.1737,-0.1756,-0.1769,-0.1812,-0.1822,-0.1843,-0.1859,-0.1861,-0.1849,-0.1862,-0.1876,-0.1877,-0.1878,-0.1851,-0.185,-0.1865,-0.1865,-0.1864,-0.1864,0,-0.1509,-0.1544,-0.1558,-0.16,-0.1629,-0.1659,-0.1697,-0.1735,-0.1772,-0.1795,-0.1835,-0.185,-0.1872,-0.1879,-0.1884,-0.1899,-0.1885,-0.188,-0.1861,-0.1883,-0.1854,-0.1852,-0.1868,-0.1867,-0.1866,-0.1866,0,0,-0.1489,-0.1555,-0.1563,-0.1591,-0.1649,-0.167,-0.172,-0.1764,-0.1795,-0.1839,-0.1867,-0.1899,-0.1909,-0.1915,-0.1919,-0.1918,-0.1917,-0.1911,-0.191,-0.1883,-0.1887,-0.1766,-0.1751,-0.192,-0.192,-0.192,-0.1862,0,-0.1496,-0.1541,-0.1576,-0.1628,-0.1654,-0.1704,-0.1743,-0.179,-0.1829,-0.1864,-0.1883,-0.1912,-0.1921,-0.1936,-0.1938,-0.1926,-0.1915,-0.1933,-0.1873,-0.1871,-0.1757,-0.1745,-0.192,-0.186,-0.1859,-0.1859,-0.1859,0,-0.1489,-0.1524,-0.1574,-0.164,-0.1658,-0.1697,-0.1761,-0.1802,-0.1855,-0.1883,-0.1915,-0.1931,-0.1949,-0.1947,-0.1933,-0.1947,-0.1922,-0.1904,-0.1901,-0.1771,-0.1744,-0.1835,-0.1854,-0.1854,-0.1855,-0.1855,-0.1855,0,-0.1443,-0.1518,-0.1558,-0.1583,-0.1664,-0.1701,-0.1747,-0.1809,-0.184,-0.1896,-0.1915,-0.1941,-0.1949,-0.1936,-0.1914,-0.1929,-0.1875,-0.1885,-0.1744,-0.1735,-0.1848,-0.1847,-0.1856,-0.1856,-0.1856,-0.1857,-0.1857,0,-0.1416,-0.1452,-0.1546,-0.1567,-0.1617,-0.1684,-0.1736,-0.1785,-0.1842,-0.186,-0.1922,-0.1919,-0.1949,-0.1927,-0.1907,-0.1806,-0.1866,-0.1734,-0.1707,-0.1865,-0.1866,-0.1846,-0.1845,-0.1854,-0.1855,-0.1855,-0.1856,0,-0.1351,-0.1416,-0.1467,-0.1564,-0.1597,-0.1633,-0.1724,-0.1747,-0.1821,-0.1842,-0.1859,-0.1902,-0.1867,-0.1866,-0.1828,-0.1772,-0.1705,-0.1653,-0.1807,-0.1793,-0.1576,-0.1579,-0.1489,-0.1484,-0.148,-0.1476,-0.1473,0,-0.1316,-0.1338,-0.1449,-0.1478,-0.1526,-0.1593,-0.1627,-0.1721,-0.1739,-0.1808,-0.1794,-0.1799,-0.1806,-0.1642,-0.1669,-0.1594,-0.1578,-0.1538,-0.157,-0.1552,-0.1537,-0.1546,-0.1554,-0.1467,-0.1466,-0.1464,-0.1463,0,-0.1246,-0.13,-0.1341,-0.1402,-0.1452,-0.1496,-0.1554,-0.1554,-0.1641,-0.1725,-0.167,-0.1636,-0.1583,-0.1544,-0.1486,-0.1445,-0.1567,-0.1495,-0.1504,-0.1534,-0.1524,-0.1515,-0.1528,-0.1449,-0.1451,-0.1452,-0.1453,0,-0.1192,-0.1203,-0.1264,-0.13,-0.1361,-0.1367,-0.1418,-0.1424,-0.1454,-0.1536,-0.1509,-0.1514,-0.1557,-0.1463,-0.1417,-0.1356,-0.1343,-0.131,-0.1329,-0.1345,-0.1325,-0.1294,-0.1109,0,0,0,0,0,-0.1127,-0.1122,-0.1152,-0.1186,-0.124,-0.1271,-0.1347,-0.1398,-0.1484,-0.14,-0.145,-0.1393,-0.132,-0.133,-0.1233,-0.1354,-0.1353,-0.1239,-0.1327,-0.1369,-0.1386,-0.1376,0,0,0,0,0,0,-0.1083,-0.1108,-0.1112,-0.1076,-0.1074,-0.1116,-0.1157,-0.1222,-0.1185,-0.1275,-0.1234,-0.1306,-0.1248,-0.1337,-0.12,-0.1202,-0.1229,-0.1255,-0.1251,-0.136,-0.1375,-0.1388,-0.1384,0,0,0,0,0]},{"header":{"parameterUnit":"m.s-1","parameterCategory":2,"la1":30.2991,"la2":30.254,"lo1":-89.0895,"lo2":-89.0444,"dy":0.0017,"dx":0.0017,"nx":28,"ny":28,"refTime":"2025-01-30T03:00:00:Z","depth":"4","parameterNumber":3,"parameterNumberName":"V-component_of_CURRENTS"},"data":[0,0,0,0,0,0,0,0,0,0,0,0,0,0,0,0,0,0,0,0,0,0,0,0,0,0,0,0,0,0,0,0,0,0,0,0,0,0,0,0,0,0,0,0,0,0,0,0,0,0,0,0,0,0,0,0,0,0,-0.0306,-0.0305,0,-0.0272,-0.0271,-0.0271,-0.0242,-0.0242,-0.0242,-0.0242,-0.012,-0.0117,-0.0114,0,0,0,0,0,0,0,0,0,0,0,0,0,-0.0302,-0.0302,-0.0306,-0.0305,-0.0305,-0.0272,-0.0271,-0.027,-0.0242,-0.0242,-0.0242,-0.0241,-0.0121,-0.0117,-0.0114,0,0,0,0,0,0,0,0,0,0,0,0,0,-0.0287,-0.0302,-0.0306,-0.0288,-0.0287,-0.0272,-0.0271,-0.027,-0.0242,-0.0242,-0.0242,-0.0241,-0.0122,-0.0118,-0.0113,-0.0088,0,0,-0.0099,-0.0097,0,0,0,0,0,0,0,0,-0.0288,-0.0287,-0.0291,-0.029,-0.0288,-0.0263,-0.0225,-0.0206,-0.0242,-0.0257,-0.0242,-0.0241,-0.0161,-0.0153,-0.0146,-0.0082,-0.0077,-0.0098,-0.0096,-0.0094,-0.0092,0,0,0,0,0,0,0,-0.0289,-0.0288,-0.029,-0.0291,-0.0289,-0.0268,-0.0265,-0.0221,-0.0207,-0.0255,-0.0254,-0.0253,-0.0159,-0.015,-0.0142,-0.0075,-0.0099,-0.0094,-0.0091,-0.009,0.0022,0.0022,0,0,0,0,0,0,-0.0301,-0.029,-0.0291,-0.0289,-0.029,-0.0268,-0.0266,-0.0269,-0.0209,-0.0201,-0.0254,-0.0252,-0.0158,-0.0148,-0.0138,-0.0108,-0.0094,-0.0089,-0.0087,0.0022,0.0022,0.0022,0,0,0,0,0,0,-0.0301,-0.0301,-0.0293,-0.029,-0.0288,-0.0269,-0.0273,-0.0269,-0.0265,-0.0209,-0.0199,-0.0255,-0.0158,-0.0144,-0.0104,-0.0103,-0.0087,-0.0083,0.0022,0.0022,0.0022,-0.0046,0,0,0,0,0,0,-0.0301,-0.0301,-0.0309,-0.0291,-0.0288,-0.0292,-0.0273,-0.0268,-0.0265,-0.0263,-0.0207,-0.0195,-0.0157,-0.0112,-0.01,-0.0096,-0.0079,0.0022,0.0022,0.0022,-0.0044,-0.0048,-0.0052,0,0,0,0,0,-0.0301,-0.0314,-0.031,-0.031,-0.0299,-0.0293,-0.029,-0.0274,-0.0266,-0.0268,-0.0229,-0.0197,-0.0101,-0.0108,-0.0094,-0.0089,0.0021,0.0022,0.0022,-0.0042,-0.0047,-0.0052,0,0,0,0,0,0,-0.0315,-0.0312,-0.0307,-0.0318,-0.031,-0.0289,-0.0291,-0.028,-0.0253,-0.0249,-0.0195,-0.0181,-0.0147,-0.0107,-0.0116,-0.0055,-0.0034,-0.0031,-0.0088,-0.0092,-0.0096,-0.0109,-0.0075,0,0,0,0,0,-0.0323,-0.0333,-0.0322,-0.0331,-0.033,-0.0312,-0.0308,-0.0299,-0.0273,-0.0262,-0.0224,-0.0177,-0.0134,-0.0106,-0.0066,-0.003,0.0009,-0.0016,-0.002,-0.0024,-0.0024,0.0033,0.0034,0.0024,0.0024,0.0024,0,0,-0.0331,-0.0331,-0.0336,-0.0335,-0.0327,-0.033,-0.0309,-0.031,-0.0307,-0.0251,-0.0233,-0.0192,-0.0129,-0.0094,-0.0074,-0.006,-0.0003,-0.0023,-0.0027,-0.0025,0.0033,0.0034,0.0035,0.0024,0.0024,0.0024,0,0,-0.0352,-0.0353,-0.0367,-0.0365,-0.0361,-0.0349,-0.0353,-0.0337,-0.0326,-0.0305,-0.0263,-0.0222,-0.0161,-0.0115,-0.0082,-0.008,-0.0031,-0.0068,-0.009,-0.0035,-0.0034,-0.0032,0.0005,0.0011,-0.0063,-0.0063,-0.0063,0,-0.0362,-0.0379,-0.0369,-0.0381,-0.0383,-0.0361,-0.0374,-0.0358,-0.0331,-0.0317,-0.0307,-0.0218,-0.0169,-0.0113,-0.0115,-0.0088,-0.0057,-0.0081,-0.0041,-0.0038,-0.0036,0.0003,0.001,-0.0066,-0.0066,-0.0066,-0.0065,0,-0.039,-0.0405,-0.0413,-0.0421,-0.0421,-0.0429,-0.041,-0.0404,-0.0387,-0.0364,-0.0321,-0.0257,-0.0201,-0.0179,-0.0145,-0.0099,-0.0085,-0.006,-0.0034,-0.0039,0.0002,0.001,-0.0071,-0.007,-0.0069,-0.0068,0,0,-0.041,-0.043,-0.0434,-0.0448,-0.0445,-0.0449,-0.0444,-0.0429,-0.0423,-0.0386,-0.0365,-0.0292,-0.026,-0.0221,-0.0169,-0.0119,-0.0077,-0.0088,-0.0084,-0.0061,0.003,0.0011,0.0018,-0.0049,-0.0047,-0.0046,0.0046,0,-0.0436,-0.0473,-0.0471,-0.05,-0.0516,-0.0498,-0.0495,-0.0476,-0.0449,-0.0423,-0.0352,-0.0311,-0.0274,-0.0247,-0.0193,-0.0105,-0.0056,-0.0105,0.0041,0.0045,0.0021,0.0027,-0.0042,0.0053,0.0055,0.0056,0.0057,0,-0.0462,-0.0486,-0.0524,-0.0545,-0.055,-0.0562,-0.0555,-0.0548,-0.0499,-0.0475,-0.0421,-0.0366,-0.0287,-0.0256,-0.0114,-0.0149,-0.0069,-0.0001,0.0005,0.0017,0.0041,0.0065,0.0073,0.0072,0.0071,0.007,0.0069,0,-0.0487,-0.0521,-0.0557,-0.0566,-0.0582,-0.0594,-0.0597,-0.0567,-0.056,-0.0505,-0.0487,-0.0391,-0.0336,-0.0228,-0.0098,-0.0102,0.0056,0.0075,0.0134,0.0133,0.0153,0.015,0.0177,0.0177,0.0176,0.0176,0.0176,0,-0.0513,-0.0543,-0.0577,-0.0599,-0.0638,-0.0633,-0.0655,-0.064,-0.0609,-0.0593,-0.0518,-0.0474,-0.0326,-0.0219,-0.0107,0.0032,0.0054,0.013,0.0159,0.012,0.0113,0.0158,0.0155,0.018,0.0179,0.0178,0.0178,0,-0.0532,-0.0555,-0.0603,-0.0639,-0.0655,-0.0684,-0.0707,-0.0712,-0.068,-0.0654,-0.0637,-0.0525,-0.0388,-0.0244,-0.0055,0.0021,0.0158,0.0204,0.0139,0.0163,0.0198,0.019,0.0276,0.0276,0.0276,0.0276,0.0276,0,-0.0544,-0.0572,-0.0639,-0.0675,-0.0699,-0.0739,-0.0762,-0.075,-0.0747,-0.0678,-0.066,-0.0533,-0.0444,-0.0196,-0.0052,0.015,0.018,0.024,0.0228,0.019,0.021,0.0202,0.0194,0.0276,0.0276,0.0277,0.0277,0,-0.0566,-0.0595,-0.0635,-0.0712,-0.0758,-0.0799,-0.0826,-0.0827,-0.0794,-0.0769,-0.0657,-0.0526,-0.0374,-0.0191,-0.0038,0.0108,0.0192,0.0242,0.0243,0.0232,0.0192,0.021,0.0202,0.0277,0.0277,0.0277,0.0277,0,-0.058,-0.0617,-0.0677,-0.0738,-0.08,-0.0836,-0.0851,-0.0828,-0.0813,-0.0729,-0.0689,-0.0521,-0.0416,-0.0211,-0.0068,0.0065,0.0101,0.014,0.0147,0.0148,0.0077,0.0005,0.0059,0,0,0,0,0,-0.0588,-0.0632,-0.0696,-0.0764,-0.0824,-0.0855,-0.0879,-0.0878,-0.0846,-0.0768,-0.0724,-0.0576,-0.0349,-0.0248,-0.0115,-0.0083,0.0104,0.0074,0.0148,0.0279,0.0279,0.0215,0,0,0,0,0,0,-0.0596,-0.066,-0.0694,-0.0767,-0.0814,-0.087,-0.0886,-0.0866,-0.0812,-0.076,-0.0634,-0.0555,-0.0335,-0.0421,-0.0114,-0.0075,-0.0013,0.0184,0.0187,0.028,0.0279,0.0279,0.0213,0,0,0,0,0]}]]